TimeEST,TemperatureF,Dew PointF,Humidity,Sea Level PressureIn,VisibilityMPH,Wind Direction,Wind SpeedMPH,Gust SpeedMPH,PrecipitationIn,Events,Conditions,WindDirDegrees,DateUTC
12:15 AM,41.0,37.4,87,30.46,10.0,Calm,Calm,-,N/A,,Unknown,0,2011-11-06 04:15:00
12:35 AM,42.8,37.4,81,30.46,10.0,Calm,Calm,-,N/A,,Unknown,0,2011-11-06 04:35:00
12:55 AM,44.6,37.4,76,30.46,10.0,Calm,Calm,-,N/A,,Unknown,0,2011-11-06 04:55:00
1:15 AM,44.6,37.4,76,30.46,10.0,NNE,3.5,-,N/A,,Unknown,20,2011-11-06 05:15:00
1:35 AM,46.4,37.4,71,30.46,10.0,Calm,Calm,-,N/A,,Unknown,0,2011-11-06 05:35:00
1:55 AM,46.4,37.4,71,30.45,10.0,North,3.5,-,N/A,,Unknown,10,2011-11-06 05:55:00
1:15 AM,46.4,37.4,71,30.45,10.0,Calm,Calm,-,N/A,,Unknown,0,2011-11-06 06:15:00
1:35 AM,44.6,35.6,71,30.44,10.0,North,4.6,-,N/A,,Unknown,10,2011-11-06 06:35:00
1:55 AM,44.6,35.6,71,30.44,10.0,NE,4.6,-,N/A,,Unknown,40,2011-11-06 06:55:00
2:15 AM,44.6,35.6,71,30.44,10.0,NNE,3.5,-,N/A,,Unknown,30,2011-11-06 07:15:00
2:35 AM,42.8,35.6,76,30.44,10.0,NE,3.5,-,N/A,,Unknown,40,2011-11-06 07:35:00
2:55 AM,42.8,35.6,76,30.44,10.0,Calm,Calm,-,N/A,,Unknown,0,2011-11-06 07:55:00
3:15 AM,42.8,35.6,76,30.44,10.0,Calm,Calm,-,N/A,,Unknown,0,2011-11-06 08:15:00
3:35 AM,41.0,35.6,81,30.44,10.0,Calm,Calm,-,N/A,,Unknown,0,2011-11-06 08:35:00
3:55 AM,41.0,35.6,81,30.44,10.0,Calm,Calm,-,N/A,,Unknown,0,2011-11-06 08:55:00
4:15 AM,39.2,35.6,87,30.44,10.0,Calm,Calm,-,N/A,,Unknown,0,2011-11-06 09:15:00
4:35 AM,39.2,35.6,87,30.45,10.0,Calm,Calm,-,N/A,,Unknown,0,2011-11-06 09:35:00
4:55 AM,39.2,35.6,87,30.45,10.0,Calm,Calm,-,N/A,,Unknown,0,2011-11-06 09:55:00
5:15 AM,39.2,35.6,87,30.46,10.0,Calm,Calm,-,N/A,,Unknown,0,2011-11-06 10:15:00
5:35 AM,39.2,35.6,87,30.46,10.0,Calm,Calm,-,N/A,,Unknown,0,2011-11-06 10:35:00
5:55 AM,39.2,35.6,87,30.46,10.0,Calm,Calm,-,N/A,,Unknown,0,2011-11-06 10:55:00
6:15 AM,39.2,35.6,87,30.46,10.0,Calm,Calm,-,N/A,,Unknown,0,2011-11-06 11:15:00
6:35 AM,37.4,35.6,93,30.47,10.0,Calm,Calm,-,N/A,,Unknown,0,2011-11-06 11:35:00
6:55 AM,35.6,33.8,93,30.48,10.0,Calm,Calm,-,N/A,,Unknown,0,2011-11-06 11:55:00
7:15 AM,35.6,35.6,100,30.49,10.0,Calm,Calm,-,N/A,,Unknown,0,2011-11-06 12:15:00
7:35 AM,44.6,37.4,76,30.49,10.0,NNE,3.5,-,N/A,,Unknown,20,2011-11-06 12:35:00
7:55 AM,44.6,35.6,71,30.49,10.0,Calm,Calm,-,N/A,,Unknown,0,2011-11-06 12:55:00
8:15 AM,46.4,35.6,66,30.50,10.0,Calm,Calm,-,N/A,,Unknown,0,2011-11-06 13:15:00
8:35 AM,46.4,35.6,66,30.51,10.0,NNE,5.8,-,N/A,,Unknown,30,2011-11-06 13:35:00
8:55 AM,48.2,35.6,62,30.51,10.0,NE,6.9,-,N/A,,Unknown,50,2011-11-06 13:55:00
9:15 AM,48.2,35.6,62,30.51,10.0,North,4.6,-,N/A,,Unknown,10,2011-11-06 14:15:00
9:55 AM,51.8,37.4,58,30.51,10.0,NE,4.6,-,N/A,,Unknown,40,2011-11-06 14:55:00
10:15 AM,53.6,37.4,54,30.51,10.0,East,4.6,-,N/A,,Unknown,90,2011-11-06 15:15:00
10:35 AM,53.6,37.4,54,30.50,10.0,ENE,3.5,-,N/A,,Unknown,60,2011-11-06 15:35:00
10:55 AM,55.4,39.2,54,30.50,10.0,East,6.9,-,N/A,,Unknown,80,2011-11-06 15:55:00
11:15 AM,57.2,39.2,51,30.49,10.0,East,3.5,-,N/A,,Unknown,80,2011-11-06 16:15:00
11:35 AM,57.2,39.2,51,30.49,10.0,NE,5.8,-,N/A,,Unknown,50,2011-11-06 16:35:00
11:55 AM,59.0,39.2,48,30.47,10.0,Calm,Calm,-,N/A,,Unknown,0,2011-11-06 16:55:00
12:15 PM,60.8,39.2,45,30.46,10.0,East,4.6,-,N/A,,Unknown,80,2011-11-06 17:15:00
12:35 PM,60.8,41.0,48,30.44,10.0,ENE,4.6,-,N/A,,Unknown,60,2011-11-06 17:35:00
12:55 PM,62.6,41.0,45,30.44,10.0,SE,4.6,-,N/A,,Unknown,130,2011-11-06 17:55:00
1:15 PM,62.6,41.0,45,30.44,10.0,NE,3.5,-,N/A,,Unknown,50,2011-11-06 18:15:00
1:35 PM,62.6,41.0,45,30.43,10.0,Calm,Calm,-,N/A,,Unknown,0,2011-11-06 18:35:00
1:55 PM,64.4,41.0,42,30.42,1.8,East,3.5,-,N/A,,Unknown,90,2011-11-06 18:55:00
2:15 PM,64.4,41.0,42,30.41,10.0,Calm,Calm,-,N/A,,Unknown,0,2011-11-06 19:15:00
2:35 PM,64.4,41.0,42,30.41,10.0,East,4.6,-,N/A,,Unknown,80,2011-11-06 19:35:00
2:55 PM,64.4,41.0,42,30.40,10.0,Calm,Calm,-,N/A,,Unknown,0,2011-11-06 19:55:00
3:15 PM,64.4,41.0,42,30.40,10.0,Calm,Calm,-,N/A,,Unknown,0,2011-11-06 20:15:00
3:35 PM,64.4,41.0,42,30.40,10.0,Calm,Calm,-,N/A,,Unknown,0,2011-11-06 20:35:00
3:55 PM,64.4,41.0,42,30.40,10.0,Calm,Calm,-,N/A,,Unknown,0,2011-11-06 20:55:00
4:15 PM,64.4,42.8,45,30.40,10.0,Calm,Calm,-,N/A,,Unknown,0,2011-11-06 21:15:00
4:35 PM,62.6,42.8,48,30.40,10.0,Calm,Calm,-,N/A,,Unknown,0,2011-11-06 21:35:00
4:55 PM,60.8,44.6,55,30.40,10.0,Calm,Calm,-,N/A,,Unknown,0,2011-11-06 21:55:00
5:15 PM,57.2,46.4,67,30.40,10.0,Calm,Calm,-,N/A,,Unknown,0,2011-11-06 22:15:00
5:35 PM,53.6,46.4,77,30.40,10.0,Calm,Calm,-,N/A,,Unknown,0,2011-11-06 22:35:00
5:55 PM,51.8,46.4,82,30.41,10.0,Calm,Calm,-,N/A,,Unknown,0,2011-11-06 22:55:00
6:15 PM,50.0,46.4,87,30.42,10.0,Calm,Calm,-,N/A,,Unknown,0,2011-11-06 23:15:00
6:35 PM,48.2,44.6,87,30.42,10.0,Calm,Calm,-,N/A,,Unknown,0,2011-11-06 23:35:00
6:55 PM,48.2,46.4,93,30.42,10.0,Calm,Calm,-,N/A,,Unknown,0,2011-11-06 23:55:00
7:15 PM,46.4,44.6,93,30.42,10.0,Calm,Calm,-,N/A,,Unknown,0,2011-11-07 00:15:00
7:35 PM,46.4,44.6,93,30.42,7.0,Calm,Calm,-,N/A,,Unknown,0,2011-11-07 00:35:00
7:55 PM,44.6,44.6,100,30.42,10.0,Calm,Calm,-,N/A,,Unknown,0,2011-11-07 00:55:00
8:15 PM,44.6,42.8,93,30.42,4.0,Calm,Calm,-,N/A,,Unknown,0,2011-11-07 01:15:00
8:35 PM,44.6,42.8,93,30.42,5.0,Calm,Calm,-,N/A,,Unknown,0,2011-11-07 01:35:00
8:55 PM,44.6,42.8,93,30.42,3.0,Calm,Calm,-,N/A,,Unknown,0,2011-11-07 01:55:00
9:15 PM,42.8,42.8,100,30.42,2.5,Calm,Calm,-,N/A,,Unknown,0,2011-11-07 02:15:00
9:35 PM,42.8,42.8,100,30.43,4.0,Calm,Calm,-,N/A,,Unknown,0,2011-11-07 02:35:00
9:55 PM,42.8,41.0,93,30.43,2.5,Calm,Calm,-,N/A,,Unknown,0,2011-11-07 02:55:00
10:15 PM,42.8,41.0,93,30.43,7.0,Calm,Calm,-,N/A,,Unknown,0,2011-11-07 03:15:00
10:35 PM,42.8,41.0,93,30.42,7.0,Calm,Calm,-,N/A,,Unknown,0,2011-11-07 03:35:00
10:55 PM,41.0,39.2,93,30.41,4.0,Calm,Calm,-,N/A,,Unknown,0,2011-11-07 03:55:00